Orbital Elements at Epoch 2459200.5 (2020-Dec-17.0) TDB
Reference: JPL 24 (heliocentric ecliptic J2000)
Element | Value | Uncertainty (1-sigma) | Units |
e | .257940315416296 | 3.6394e-08 | |
a | 2.36650717519487 | 7.8014e-09 | au |
q | 1.756089567990178 | 8.6028e-08 | au |
i | 9.054886106935434 | 4.4324e-06 | deg |
node | 95.88828803345808 | 2.498e-05 | deg |
peri | 261.2468514799351 | 2.6588e-05 | deg |
M | 96.13134310292418 | 1.2572e-05 | deg |
tp | 2458845.422891538095 (2019-Dec-27.92289154) | 4.5152e-05 | TDB |
period | 1329.719890727268 3.64 | 6.5753e-06 1.8e-08 | d yr |
n | .2707337105434319 | 1.3387e-09 | deg/d |
Q | 2.976924782399563 | 9.8137e-09 | au |
|
| | Orbit Determination Parameters
Additional Information
|